This is the latest recevied weather packets stored in our database for station/object KB1JLI. If no packets are shown the sender has not sent any weather packets the latest 10 day(s).
| Time | Temp. | Humidity | Pressure | Rain* | Wind** | Luminosity | Snow |
|---|---|---|---|---|---|---|---|
| 1777212025 | 12.78° C | 46% | 1020.8 hPa | 0 mm | - | 227 W/m² | - |
| 1777211721 | 12.78° C | 46% | 1020.5 hPa | 0 mm | - | 224 W/m² | - |
| 1777211420 | 13.33° C | 45% | 1020.6 hPa | 0 mm | - | 224 W/m² | - |
| 1777211115 | 12.78° C | 48% | 1020.5 hPa | 0 mm | - | 246 W/m² | - |
| 1777210812 | 12.78° C | 48% | 1020.3 hPa | 0 mm | - | 287 W/m² | - |
| 1777210511 | 12.78° C | 48% | 1020.4 hPa | 0 mm | - | 285 W/m² | - |
| 1777210209 | 12.22° C | 49% | 1020.4 hPa | 0 mm | - | 251 W/m² | - |
| 1777209905 | 12.78° C | 50% | 1020.3 hPa | 0 mm | - | 359 W/m² | - |
| 1777209600 | 12.22° C | 53% | 1020.3 hPa | 0 mm | - | 277 W/m² | - |
| 1777209295 | 11.67° C | 54% | 1020.2 hPa | 0 mm | - | 256 W/m² | - |
| 1777208993 | 11.67° C | 55% | 1020.3 hPa | 0 mm | - | 233 W/m² | - |
| 1777208689 | 11.11° C | 57% | 1020.3 hPa | 0 mm | - | 262 W/m² | - |
| 1777208385 | 10.56° C | 56% | 1020.2 hPa | 0 mm | - | 221 W/m² | - |
| 1777208082 | 10.56° C | 57% | 1020 hPa | 0 mm | - | 204 W/m² | - |
| 1777207777 | 10.56° C | 59% | 1020 hPa | 0 mm | - | 178 W/m² | - |
| 1777207472 | 10.56° C | 60% | 1020.1 hPa | 0 mm | - | 162 W/m² | - |
| 1777207167 | 10.56° C | 58% | 1019.9 hPa | 0 mm | - | 149 W/m² | - |
| 1777206862 | 10° C | 60% | 1019.9 hPa | 0 mm | - | 183 W/m² | - |
| 1777206553 | 10° C | 62% | 1020 hPa | 0 mm | - | 185 W/m² | - |
| 1777206247 | 10° C | 61% | 1020.3 hPa | 0 mm | - | 129 W/m² | - |
| 1777205942 | 10° C | 62% | 1020.3 hPa | 0 mm | - | 128 W/m² | - |
| 1777205639 | 9.44° C | 64% | 1020 hPa | 0 mm | - | 125 W/m² | - |
| 1777205336 | 9.44° C | 65% | 1020.1 hPa | 0 mm | - | 116 W/m² | - |
| 1777205031 | 9.44° C | 64% | 1019.9 hPa | 0 mm | - | 108 W/m² | - |
| 1777204726 | 9.44° C | 63% | 1019.9 hPa | 0 mm | - | 102 W/m² | - |
* Rain latest hour (hover to see other rain measurements)
** Current wind speed in m/s (hover to see current wind gust speed)